Time,TemperatureF,DewpointF,PressureIn,WindDirection,WindDirectionDegrees,WindSpeedMPH,WindSpeedGustMPH,Humidity,HourlyPrecipIn,Conditions,Clouds,dailyrainin,SolarRadiationWatts/m^2,SoftwareType,DateUTC
2013-06-18 00:02:00,56.0,47.0,-100.00,West,278,13.0,25.0,71,0.00,,,0.00,0.000000,,2013-06-18 07:02:00,
2013-06-18 00:12:00,56.0,47.0,-100.00,West,278,13.0,25.0,71,0.00,,,0.00,0.000000,,2013-06-18 07:12:00,
2013-06-18 00:33:00,53.0,47.0,-100.00,WNW,297,7.0,22.0,80,0.00,,,0.00,0.000000,,2013-06-18 07:33:00,
2013-06-18 00:43:00,53.0,47.0,-100.00,WNW,297,7.0,22.0,80,0.00,,,0.00,0.000000,,2013-06-18 07:43:00,
2013-06-18 00:53:00,53.0,47.0,-100.00,WNW,297,7.0,22.0,80,0.00,,,0.00,0.000000,,2013-06-18 07:53:00,
2013-06-18 01:01:00,53.0,47.0,-100.00,WNW,297,7.0,22.0,80,0.00,,,0.00,0.000000,,2013-06-18 08:01:00,
2013-06-18 01:11:00,53.0,47.0,-100.00,WNW,297,7.0,22.0,80,0.00,,,0.00,0.000000,,2013-06-18 08:11:00,
2013-06-18 01:43:00,53.0,47.0,-100.00,West,280,9.0,17.0,79,0.00,,,0.00,0.000000,,2013-06-18 08:43:00,
2013-06-18 01:52:00,53.0,47.0,-100.00,West,280,9.0,17.0,79,0.00,,,0.00,0.000000,,2013-06-18 08:52:00,
2013-06-18 02:01:00,53.0,47.0,-100.00,West,280,9.0,17.0,79,0.00,,,0.00,0.000000,,2013-06-18 09:01:00,
2013-06-18 02:11:00,53.0,47.0,-100.00,West,280,9.0,17.0,79,0.00,,,0.00,0.000000,,2013-06-18 09:11:00,
2013-06-18 02:43:00,50.0,46.0,-100.00,NW,312,7.0,17.0,85,0.00,,,0.00,0.000000,,2013-06-18 09:43:00,
2013-06-18 02:53:00,50.0,46.0,-100.00,NW,312,7.0,17.0,85,0.00,,,0.00,0.000000,,2013-06-18 09:53:00,
2013-06-18 03:01:00,50.0,46.0,-100.00,NW,312,7.0,17.0,85,0.00,,,0.00,0.000000,,2013-06-18 10:01:00,
2013-06-18 03:11:00,50.0,46.0,-100.00,NW,312,7.0,17.0,85,0.00,,,0.00,0.000000,,2013-06-18 10:11:00,
2013-06-18 03:33:00,49.0,45.0,-100.00,NW,314,6.0,15.0,85,0.00,,,0.00,0.000000,,2013-06-18 10:33:00,
2013-06-18 03:43:00,49.0,45.0,-100.00,NW,314,6.0,15.0,85,0.00,,,0.00,0.000000,,2013-06-18 10:43:00,
2013-06-18 03:53:00,49.0,45.0,-100.00,NW,314,6.0,15.0,85,0.00,,,0.00,0.000000,,2013-06-18 10:53:00,
2013-06-18 04:02:00,49.0,45.0,-100.00,NW,314,6.0,15.0,85,0.00,,,0.00,0.000000,,2013-06-18 11:02:00,
2013-06-18 04:11:00,49.0,45.0,-100.00,NW,314,6.0,15.0,85,0.00,,,0.00,0.000000,,2013-06-18 11:11:00,
2013-06-18 04:43:00,49.0,45.0,-100.00,NW,321,5.0,16.0,87,0.00,,,0.00,0.000000,,2013-06-18 11:43:00,
2013-06-18 04:52:00,49.0,45.0,-100.00,NW,321,5.0,16.0,87,0.00,,,0.00,0.000000,,2013-06-18 11:52:00,
2013-06-18 05:01:00,49.0,45.0,-100.00,NW,321,5.0,16.0,87,0.00,,,0.00,0.000000,,2013-06-18 12:01:00,
2013-06-18 05:11:00,49.0,45.0,-100.00,NW,321,5.0,16.0,87,0.00,,,0.00,0.000000,,2013-06-18 12:11:00,
2013-06-18 05:43:00,48.0,45.0,-100.00,NW,310,6.0,15.0,90,0.00,,,0.00,0.000000,,2013-06-18 12:43:00,
2013-06-18 05:52:00,48.0,45.0,-100.00,NW,310,6.0,15.0,90,0.00,,,0.00,0.000000,,2013-06-18 12:52:00,
2013-06-18 06:01:00,48.0,45.0,-100.00,NW,310,6.0,15.0,90,0.00,,,0.00,0.000000,,2013-06-18 13:01:00,
2013-06-18 06:11:00,48.0,45.0,-100.00,NW,310,6.0,15.0,90,0.00,,,0.00,0.000000,,2013-06-18 13:11:00,
2013-06-18 06:43:00,48.0,45.0,-100.00,NW,304,6.0,13.0,89,0.00,,,0.00,13.000000,,2013-06-18 13:43:00,
2013-06-18 06:53:00,48.0,45.0,-100.00,NW,304,6.0,13.0,89,0.00,,,0.00,13.000000,,2013-06-18 13:53:00,
2013-06-18 07:02:00,48.0,45.0,-100.00,NW,304,6.0,13.0,89,0.00,,,0.00,13.000000,,2013-06-18 14:02:00,
2013-06-18 07:11:00,48.0,45.0,-100.00,NW,304,6.0,13.0,89,0.00,,,0.00,13.000000,,2013-06-18 14:11:00,
2013-06-18 07:43:00,50.0,47.0,-100.00,NW,316,5.0,12.0,89,0.00,,,0.00,94.000000,,2013-06-18 14:43:00,
2013-06-18 07:53:00,50.0,47.0,-100.00,NW,316,5.0,12.0,89,0.00,,,0.00,94.000000,,2013-06-18 14:53:00,
2013-06-18 08:02:00,50.0,47.0,-100.00,NW,316,5.0,12.0,89,0.00,,,0.00,94.000000,,2013-06-18 15:02:00,
2013-06-18 08:11:00,50.0,47.0,-100.00,NW,316,5.0,12.0,89,0.00,,,0.00,94.000000,,2013-06-18 15:11:00,
2013-06-18 08:33:00,55.0,46.0,-100.00,NW,312,5.0,11.0,72,0.00,,,0.00,154.000000,,2013-06-18 15:33:00,
2013-06-18 08:43:00,55.0,46.0,-100.00,NW,312,5.0,11.0,72,0.00,,,0.00,154.000000,,2013-06-18 15:43:00,
2013-06-18 08:53:00,55.0,46.0,-100.00,NW,312,5.0,11.0,72,0.00,,,0.00,154.000000,,2013-06-18 15:53:00,
2013-06-18 09:01:00,55.0,46.0,-100.00,NW,312,5.0,11.0,72,0.00,,,0.00,154.000000,,2013-06-18 16:01:00,
2013-06-18 09:11:00,55.0,46.0,-100.00,NW,312,5.0,11.0,72,0.00,,,0.00,154.000000,,2013-06-18 16:11:00,
2013-06-18 09:33:00,56.0,47.0,-100.00,NNW,339,8.0,17.0,72,0.00,,,0.00,466.000000,,2013-06-18 16:33:00,
2013-06-18 09:43:00,56.0,47.0,-100.00,NNW,339,8.0,17.0,72,0.00,,,0.00,466.000000,,2013-06-18 16:43:00,
2013-06-18 09:53:00,56.0,47.0,-100.00,NNW,339,8.0,17.0,72,0.00,,,0.00,466.000000,,2013-06-18 16:53:00,
2013-06-18 10:01:00,56.0,47.0,-100.00,NNW,339,8.0,17.0,72,0.00,,,0.00,466.000000,,2013-06-18 17:01:00,
2013-06-18 10:11:00,56.0,47.0,-100.00,NNW,339,8.0,17.0,72,0.00,,,0.00,466.000000,,2013-06-18 17:11:00,
2013-06-18 10:34:00,59.0,47.0,-100.00,NNW,331,6.0,13.0,64,0.00,,,0.00,394.000000,,2013-06-18 17:34:00,
2013-06-18 10:43:00,59.0,47.0,-100.00,NNW,331,6.0,13.0,64,0.00,,,0.00,394.000000,,2013-06-18 17:43:00,
2013-06-18 10:53:00,59.0,47.0,-100.00,NNW,331,6.0,13.0,64,0.00,,,0.00,394.000000,,2013-06-18 17:53:00,
2013-06-18 11:01:00,59.0,47.0,-100.00,NNW,331,6.0,13.0,64,0.00,,,0.00,394.000000,,2013-06-18 18:01:00,
2013-06-18 11:11:00,59.0,47.0,-100.00,NNW,331,6.0,13.0,64,0.00,,,0.00,394.000000,,2013-06-18 18:11:00,
2013-06-18 11:33:00,57.0,47.0,-100.00,NW,323,4.0,13.0,68,0.00,,,0.00,385.000000,,2013-06-18 18:33:00,
2013-06-18 11:42:00,57.0,47.0,-100.00,NW,323,4.0,13.0,68,0.00,,,0.00,385.000000,,2013-06-18 18:42:00,
2013-06-18 11:53:00,57.0,47.0,-100.00,NW,323,4.0,13.0,68,0.00,,,0.00,385.000000,,2013-06-18 18:53:00,
2013-06-18 12:01:00,57.0,47.0,-100.00,NW,323,4.0,13.0,68,0.00,,,0.00,385.000000,,2013-06-18 19:01:00,
2013-06-18 12:11:00,57.0,47.0,-100.00,NW,323,4.0,13.0,68,0.00,,,0.00,385.000000,,2013-06-18 19:11:00,
2013-06-18 12:33:00,60.0,45.0,-100.00,WNW,283,5.0,14.0,57,0.00,,,0.00,855.000000,,2013-06-18 19:33:00,
2013-06-18 12:43:00,60.0,45.0,-100.00,WNW,283,5.0,14.0,57,0.00,,,0.00,855.000000,,2013-06-18 19:43:00,
2013-06-18 12:52:00,60.0,45.0,-100.00,WNW,283,5.0,14.0,57,0.00,,,0.00,855.000000,,2013-06-18 19:52:00,
2013-06-18 13:01:00,60.0,45.0,-100.00,WNW,283,5.0,14.0,57,0.00,,,0.00,855.000000,,2013-06-18 20:01:00,
2013-06-18 13:11:00,60.0,45.0,-100.00,WNW,283,5.0,14.0,57,0.00,,,0.00,855.000000,,2013-06-18 20:11:00,
2013-06-18 13:33:00,63.0,44.0,-100.00,WNW,285,6.0,12.0,50,0.00,,,0.00,560.000000,,2013-06-18 20:33:00,
2013-06-18 13:43:00,63.0,44.0,-100.00,WNW,285,6.0,12.0,50,0.00,,,0.00,560.000000,,2013-06-18 20:43:00,
2013-06-18 13:52:00,63.0,44.0,-100.00,WNW,285,6.0,12.0,50,0.00,,,0.00,560.000000,,2013-06-18 20:52:00,
2013-06-18 14:01:00,63.0,44.0,-100.00,WNW,285,6.0,12.0,50,0.00,,,0.00,560.000000,,2013-06-18 21:01:00,
2013-06-18 14:11:00,63.0,44.0,-100.00,WNW,285,6.0,12.0,50,0.00,,,0.00,560.000000,,2013-06-18 21:11:00,
2013-06-18 14:33:00,66.0,43.0,-100.00,WNW,287,7.0,15.0,43,0.00,,,0.00,913.000000,,2013-06-18 21:33:00,
2013-06-18 14:43:00,66.0,43.0,-100.00,WNW,287,7.0,15.0,43,0.00,,,0.00,913.000000,,2013-06-18 21:43:00,
2013-06-18 14:52:00,66.0,43.0,-100.00,WNW,287,7.0,15.0,43,0.00,,,0.00,913.000000,,2013-06-18 21:52:00,
2013-06-18 15:01:00,66.0,43.0,-100.00,WNW,287,7.0,15.0,43,0.00,,,0.00,913.000000,,2013-06-18 22:01:00,
2013-06-18 15:11:00,66.0,43.0,-100.00,WNW,287,7.0,15.0,43,0.00,,,0.00,913.000000,,2013-06-18 22:11:00,
2013-06-18 15:34:00,63.0,41.0,-100.00,WNW,296,4.0,16.0,45,0.00,,,0.00,498.000000,,2013-06-18 22:34:00,
2013-06-18 15:43:00,63.0,41.0,-100.00,WNW,296,4.0,16.0,45,0.00,,,0.00,498.000000,,2013-06-18 22:43:00,
2013-06-18 15:53:00,63.0,41.0,-100.00,WNW,296,4.0,16.0,45,0.00,,,0.00,498.000000,,2013-06-18 22:53:00,
2013-06-18 16:01:00,63.0,41.0,-100.00,WNW,296,4.0,16.0,45,0.00,,,0.00,498.000000,,2013-06-18 23:01:00,
2013-06-18 16:11:00,63.0,41.0,-100.00,WNW,296,4.0,16.0,45,0.00,,,0.00,498.000000,,2013-06-18 23:11:00,
2013-06-18 16:48:00,66.0,40.0,-100.00,WNW,292,7.0,17.0,38,0.00,,,0.00,668.000000,,2013-06-18 23:48:00,
2013-06-18 16:53:00,66.0,40.0,-100.00,WNW,292,7.0,17.0,38,0.00,,,0.00,668.000000,,2013-06-18 23:53:00,
2013-06-18 17:01:00,66.0,40.0,-100.00,WNW,292,7.0,17.0,38,0.00,,,0.00,668.000000,,2013-06-19 00:01:00,
2013-06-18 17:11:00,66.0,40.0,-100.00,WNW,292,7.0,17.0,38,0.00,,,0.00,668.000000,,2013-06-19 00:11:00,
2013-06-18 17:43:00,67.0,39.0,-100.00,NW,305,7.0,17.0,36,0.00,,,0.00,579.000000,,2013-06-19 00:43:00,
2013-06-18 17:53:00,67.0,39.0,-100.00,NW,305,7.0,17.0,36,0.00,,,0.00,579.000000,,2013-06-19 00:53:00,
2013-06-18 18:01:00,67.0,39.0,-100.00,NW,305,7.0,17.0,36,0.00,,,0.00,579.000000,,2013-06-19 01:01:00,
2013-06-18 18:11:00,67.0,39.0,-100.00,NW,305,7.0,17.0,36,0.00,,,0.00,579.000000,,2013-06-19 01:11:00,
2013-06-18 18:43:00,65.0,39.0,-100.00,WNW,289,8.0,20.0,38,0.00,,,0.00,415.000000,,2013-06-19 01:43:00,
2013-06-18 18:53:00,65.0,39.0,-100.00,WNW,289,8.0,20.0,38,0.00,,,0.00,415.000000,,2013-06-19 01:53:00,
2013-06-18 19:01:00,65.0,39.0,-100.00,WNW,289,8.0,20.0,38,0.00,,,0.00,415.000000,,2013-06-19 02:01:00,
2013-06-18 19:11:00,65.0,39.0,-100.00,WNW,289,8.0,20.0,38,0.00,,,0.00,415.000000,,2013-06-19 02:11:00,
2013-06-18 19:32:00,57.0,43.0,-100.00,West,270,15.0,26.0,60,0.00,,,0.00,348.000000,,2013-06-19 02:32:00,
2013-06-18 19:42:00,57.0,43.0,-100.00,West,270,15.0,26.0,60,0.00,,,0.00,348.000000,,2013-06-19 02:42:00,
2013-06-18 19:52:00,57.0,43.0,-100.00,West,270,15.0,26.0,60,0.00,,,0.00,348.000000,,2013-06-19 02:52:00,
2013-06-18 20:01:00,57.0,43.0,-100.00,West,270,15.0,26.0,60,0.00,,,0.00,348.000000,,2013-06-19 03:01:00,
2013-06-18 20:11:00,57.0,43.0,-100.00,West,270,15.0,26.0,60,0.00,,,0.00,348.000000,,2013-06-19 03:11:00,
2013-06-18 20:33:00,55.0,42.0,-100.00,West,278,11.0,26.0,62,0.00,,,0.00,73.000000,,2013-06-19 03:33:00,
2013-06-18 20:43:00,55.0,42.0,-100.00,West,278,11.0,26.0,62,0.00,,,0.00,73.000000,,2013-06-19 03:43:00,
2013-06-18 20:52:00,55.0,42.0,-100.00,West,278,11.0,26.0,62,0.00,,,0.00,73.000000,,2013-06-19 03:52:00,
2013-06-18 21:01:00,55.0,42.0,-100.00,West,278,11.0,26.0,62,0.00,,,0.00,73.000000,,2013-06-19 04:01:00,
2013-06-18 21:11:00,55.0,42.0,-100.00,West,278,11.0,26.0,62,0.00,,,0.00,73.000000,,2013-06-19 04:11:00,
2013-06-18 21:33:00,52.0,43.0,-100.00,West,276,12.0,25.0,70,0.00,,,0.00,9.000000,,2013-06-19 04:33:00,
2013-06-18 21:43:00,52.0,43.0,-100.00,West,276,12.0,25.0,70,0.00,,,0.00,9.000000,,2013-06-19 04:43:00,
2013-06-18 21:53:00,52.0,43.0,-100.00,West,276,12.0,25.0,70,0.00,,,0.00,9.000000,,2013-06-19 04:53:00,
2013-06-18 22:01:00,52.0,43.0,-100.00,West,276,12.0,25.0,70,0.00,,,0.00,9.000000,,2013-06-19 05:01:00,
2013-06-18 22:11:00,52.0,43.0,-100.00,West,276,12.0,25.0,70,0.00,,,0.00,9.000000,,2013-06-19 05:11:00,
2013-06-18 22:32:00,51.0,40.0,-100.00,West,280,12.0,21.0,67,0.00,,,0.00,0.000000,,2013-06-19 05:32:00,
2013-06-18 22:43:00,51.0,40.0,-100.00,West,280,12.0,21.0,67,0.00,,,0.00,0.000000,,2013-06-19 05:43:00,
2013-06-18 22:52:00,51.0,40.0,-100.00,West,280,12.0,21.0,67,0.00,,,0.00,0.000000,,2013-06-19 05:52:00,
2013-06-18 23:01:00,51.0,40.0,-100.00,West,280,12.0,21.0,67,0.00,,,0.00,0.000000,,2013-06-19 06:01:00,
2013-06-18 23:11:00,51.0,40.0,-100.00,West,280,12.0,21.0,67,0.00,,,0.00,0.000000,,2013-06-19 06:11:00,
2013-06-18 23:43:00,50.0,41.0,-100.00,WNW,290,7.0,19.0,71,0.00,,,0.00,0.000000,,2013-06-19 06:43:00,
2013-06-18 23:52:00,50.0,41.0,-100.00,WNW,290,7.0,19.0,71,0.00,,,0.00,0.000000,,2013-06-19 06:52:00,